Time,TemperatureF,DewpointF,PressureIn,WindDirection,WindDirectionDegrees,WindSpeedMPH,WindSpeedGustMPH,Humidity,HourlyPrecipIn,Conditions,Clouds,dailyrainin,SoftwareType,DateUTC
2013-12-22 00:22:00,63.0,51.0,29.97,SW,219,0.0,-999.0,66,-99.99,,,-99.99,,2013-12-22 05:22:00,
2013-12-22 00:43:00,62.0,51.0,29.96,SW,219,0.0,-999.0,66,-99.99,,,-99.99,,2013-12-22 05:43:00,
2013-12-22 00:53:00,62.0,51.0,29.95,SW,219,0.0,-999.0,66,-99.99,,,-99.99,,2013-12-22 05:53:00,
2013-12-22 01:22:00,58.0,50.0,29.95,SW,219,0.0,-999.0,74,-99.99,,,-99.99,,2013-12-22 06:22:00,
2013-12-22 01:52:00,58.0,50.0,29.93,SW,219,0.0,-999.0,76,-99.99,,,-99.99,,2013-12-22 06:52:00,
2013-12-22 02:22:00,63.0,54.0,29.94,SW,221,5.0,-999.0,73,-99.99,,,-99.99,,2013-12-22 07:22:00,
2013-12-22 02:52:00,65.0,56.0,29.94,SSW,205,4.0,-999.0,72,-99.99,,,-99.99,,2013-12-22 07:52:00,
2013-12-22 03:22:00,66.0,57.0,29.93,South,187,5.0,-999.0,72,-99.99,,,-99.99,,2013-12-22 08:22:00,
2013-12-22 03:52:00,66.0,58.0,29.90,SW,236,8.0,-999.0,75,-99.99,,,-99.99,,2013-12-22 08:52:00,
2013-12-22 04:22:00,67.0,58.0,29.90,SW,223,8.0,-999.0,74,-99.99,,,-99.99,,2013-12-22 09:22:00,
2013-12-22 04:43:00,67.0,59.0,29.90,SW,219,2.0,-999.0,75,-99.99,,,-99.99,,2013-12-22 09:43:00,
2013-12-22 04:54:00,67.0,59.0,29.90,SW,221,5.0,-999.0,75,-99.99,,,-99.99,,2013-12-22 09:54:00,
2013-12-22 05:23:00,67.0,59.0,29.88,South,182,2.0,-999.0,75,-99.99,,,-99.99,,2013-12-22 10:23:00,
2013-12-22 05:53:00,67.0,59.0,29.89,SSW,210,4.0,-999.0,75,-99.99,,,-99.99,,2013-12-22 10:53:00,
2013-12-22 06:22:00,68.0,59.0,29.88,SW,235,4.0,-999.0,74,-99.99,,,-99.99,,2013-12-22 11:22:00,
2013-12-22 06:52:00,68.0,59.0,29.89,SSW,211,7.0,-999.0,73,-99.99,,,-99.99,,2013-12-22 11:52:00,
2013-12-22 07:22:00,68.0,59.0,29.90,South,178,4.0,-999.0,73,-99.99,,,-99.99,,2013-12-22 12:22:00,
2013-12-22 07:52:00,69.0,59.0,29.90,SW,215,6.0,-999.0,71,-99.99,,,-99.99,,2013-12-22 12:52:00,
2013-12-22 08:22:00,69.0,59.0,29.91,SW,222,13.0,-999.0,70,-99.99,,,-99.99,,2013-12-22 13:22:00,
2013-12-22 08:52:00,70.0,60.0,29.92,SSW,209,2.0,-999.0,70,-99.99,,,-99.99,,2013-12-22 13:52:00,
2013-12-22 09:22:00,71.0,60.0,29.94,WSW,240,12.0,-999.0,68,-99.99,,,-99.99,,2013-12-22 14:22:00,
2013-12-22 09:52:00,71.0,60.0,29.95,SW,236,13.0,-999.0,68,-99.99,,,-99.99,,2013-12-22 14:52:00,
2013-12-22 10:22:00,71.0,60.0,29.97,SW,223,20.0,-999.0,68,-99.99,,,-99.99,,2013-12-22 15:22:00,
2013-12-22 10:53:00,71.0,59.0,29.99,SW,218,7.0,-999.0,67,-99.99,,,-99.99,,2013-12-22 15:53:00,
2013-12-22 11:23:00,71.0,59.0,29.99,WSW,237,5.0,-999.0,66,-99.99,,,-99.99,,2013-12-22 16:23:00,
2013-12-22 11:52:00,71.0,57.0,29.99,WSW,237,15.0,-999.0,62,-99.99,,,-99.99,,2013-12-22 16:52:00,
2013-12-22 12:23:00,71.0,57.0,29.98,WSW,244,6.0,-999.0,61,-99.99,,,-99.99,,2013-12-22 17:23:00,
2013-12-22 12:42:00,70.0,56.0,29.98,SSW,212,1.0,-999.0,61,-99.99,,,-99.99,,2013-12-22 17:42:00,
2013-12-22 12:52:00,70.0,56.0,29.98,SW,222,9.0,-999.0,61,-99.99,,,-99.99,,2013-12-22 17:52:00,
2013-12-22 13:22:00,72.0,57.0,29.96,SSW,199,3.0,-999.0,59,-99.99,,,-99.99,,2013-12-22 18:22:00,
2013-12-22 13:42:00,72.0,56.0,29.94,SSW,210,5.0,-999.0,58,-99.99,,,-99.99,,2013-12-22 18:42:00,
2013-12-22 13:52:00,72.0,56.0,29.94,South,187,5.0,-999.0,58,-99.99,,,-99.99,,2013-12-22 18:52:00,
2013-12-22 14:22:00,70.0,55.0,29.93,SSW,209,3.0,-999.0,60,-99.99,,,-99.99,,2013-12-22 19:22:00,
2013-12-22 14:42:00,70.0,56.0,29.92,SSE,166,1.0,-999.0,61,-99.99,,,-99.99,,2013-12-22 19:42:00,
2013-12-22 14:52:00,70.0,56.0,29.92,SSW,202,5.0,-999.0,62,-99.99,,,-99.99,,2013-12-22 19:52:00,
2013-12-22 15:22:00,69.0,56.0,29.93,South,176,4.0,-999.0,64,-99.99,,,-99.99,,2013-12-22 20:22:00,
2013-12-22 15:53:00,70.0,57.0,29.93,SSE,168,5.0,-999.0,63,-99.99,,,-99.99,,2013-12-22 20:53:00,
2013-12-22 16:22:00,70.0,56.0,29.94,SSW,195,0.0,-999.0,61,-99.99,,,-99.99,,2013-12-22 21:22:00,
2013-12-22 16:43:00,70.0,55.0,29.95,SSW,211,1.0,-999.0,60,-99.99,,,-99.99,,2013-12-22 21:43:00,
2013-12-22 16:53:00,69.0,54.0,29.96,SSW,210,5.0,-999.0,58,-99.99,,,-99.99,,2013-12-22 21:53:00,
2013-12-22 17:23:00,69.0,54.0,29.96,SSW,201,10.0,-999.0,58,-99.99,,,-99.99,,2013-12-22 22:23:00,
2013-12-22 17:43:00,68.0,54.0,29.96,SW,225,2.0,-999.0,61,-99.99,,,-99.99,,2013-12-22 22:43:00,
2013-12-22 17:53:00,67.0,54.0,29.94,SW,214,5.0,-999.0,63,-99.99,,,-99.99,,2013-12-22 22:53:00,
2013-12-22 18:22:00,67.0,53.0,29.96,SW,229,6.0,-999.0,61,-99.99,,,-99.99,,2013-12-22 23:22:00,
2013-12-22 18:42:00,67.0,53.0,29.93,SW,220,4.0,-999.0,60,-99.99,,,-99.99,,2013-12-22 23:42:00,
2013-12-22 18:53:00,67.0,53.0,29.95,SW,227,5.0,-999.0,61,-99.99,,,-99.99,,2013-12-22 23:53:00,
2013-12-22 19:22:00,67.0,54.0,29.98,WSW,242,5.0,-999.0,62,-99.99,,,-99.99,,2013-12-23 00:22:00,
2013-12-22 19:52:00,66.0,53.0,29.99,SW,225,8.0,-999.0,62,-99.99,,,-99.99,,2013-12-23 00:52:00,
2013-12-22 20:22:00,66.0,53.0,29.99,SW,220,0.0,-999.0,64,-99.99,,,-99.99,,2013-12-23 01:22:00,
2013-12-22 20:42:00,66.0,53.0,30.00,SW,224,8.0,-999.0,64,-99.99,,,-99.99,,2013-12-23 01:42:00,
2013-12-22 20:52:00,66.0,54.0,29.99,SW,224,0.0,-999.0,65,-99.99,,,-99.99,,2013-12-23 01:52:00,
2013-12-22 21:22:00,66.0,54.0,30.02,WSW,237,3.0,-999.0,65,-99.99,,,-99.99,,2013-12-23 02:22:00,
2013-12-22 21:52:00,65.0,53.0,30.02,SW,225,5.0,-999.0,66,-99.99,,,-99.99,,2013-12-23 02:52:00,
2013-12-22 22:22:00,66.0,54.0,30.02,SW,227,2.0,-999.0,66,-99.99,,,-99.99,,2013-12-23 03:22:00,
2013-12-22 22:43:00,65.0,54.0,30.02,SW,233,2.0,-999.0,67,-99.99,,,-99.99,,2013-12-23 03:43:00,
2013-12-22 22:53:00,65.0,54.0,30.02,SW,233,0.0,-999.0,67,-99.99,,,-99.99,,2013-12-23 03:53:00,
2013-12-22 23:23:00,65.0,54.0,30.02,SW,233,3.0,-999.0,67,-99.99,,,-99.99,,2013-12-23 04:23:00,
2013-12-22 23:52:00,65.0,54.0,30.02,SW,228,2.0,-999.0,67,-99.99,,,-99.99,,2013-12-23 04:52:00,